Weather History for KMSS - February, 2014

Change the Weather History Date:

Tuesday, February 4, 2014

  Actual Average Record
Temperature  
Mean Temperature 16 °F 15 °F  
Max Temperature 22 °F 26 °F 51 °F (1991)
Min Temperature 10 °F 5 °F -25 °F (1978)
Degree Days  
Heating Degree Days 49 50  
Month to date heating degree days 176 200  
Since 1 July heating degree days 4958 4863  
Cooling Degree Days 0 0  
Month to date cooling degree days 0  
Year to date cooling degree days 0  
Moisture  
Dew Point 9 °F    
Average Humidity 70    
Maximum Humidity 88    
Minimum Humidity 52    
Precipitation  
Precipitation T in 0.05 in 0.90 in ()
Month to date precipitation 0.40 0.23  
Year to date precipitation 1.86 2.41  
Sea Level Pressure  
Sea Level Pressure 30.44 in    
Wind  
Wind Speed 4 mph (WSW)    
Max Wind Speed 12 mph    
Max Gust Speed 15 mph    
Visibility 8 miles    
Events Snow    
T = Trace of Precipitation, MM = Missing Value Source: NWS Daily Summary

Daily Weather History Graph

Daily Weather History Graph

Search for Another Location

Airport or City:

Trip Planner

Search our weather history database for the weather conditions in past years. The results will help you decide how hot, cold, wet, or windy it might be!

Date:

Astronomy

Feb. 04, 2014 Rise Set
Actual Time 7:15 AM EST 5:11 PM EST
Civil Twilight 6:44 AM EST 5:42 PM EST
Nautical Twilight 6:09 AM EST 6:17 PM EST
Astronomical Twilight 5:35 AM EST 6:52 PM EST
Moon 9:35 AM EST (2/4) 11:20 PM EST (2/4)
Length of Visible Light 10h 58m
Length of Day
9h 56m
Waxing Crescent, 29% of the Moon is Illuminated
Feb 4
Waxing Crescent
Feb 6
First Quarter
Feb 14
Full
Feb 22
Last Quarter
Mar 1
New

Hourly Weather History & Observations

Time (EST) Temp. Windchill Dew Point Humidity Pressure Visibility Wind Dir Wind Speed Gust Speed Precip Events Conditions
12:42 AM 14.0 °F - 9.0 °F 80% 30.36 in 3.0 mi Calm Calm - 0.00 in Snow Light Snow
12:53 AM 14.0 °F - 9.0 °F 80% 30.39 in 5.0 mi Calm Calm - 0.00 in Snow Light Snow
1:21 AM 14.0 °F - 9.0 °F 80% 30.36 in 1.8 mi Calm Calm - 0.00 in Snow Light Snow
1:28 AM 14.0 °F - 10.0 °F 84% 30.36 in 3.0 mi Calm Calm - 0.00 in Snow Light Snow
1:53 AM 14.0 °F - 10.0 °F 84% 30.38 in 3.0 mi Calm Calm - 0.00 in Snow Light Snow
2:02 AM 15.1 °F - 10.0 °F 80% 30.36 in 2.0 mi Calm Calm - 0.00 in Snow Light Snow
2:07 AM 15.1 °F - 10.0 °F 80% 30.36 in 3.0 mi Calm Calm - 0.00 in Snow Light Snow
2:21 AM 15.1 °F 7.7 °F 10.0 °F 80% 30.36 in 3.0 mi SW 4.6 mph - 0.00 in Snow Light Snow
2:53 AM 18.0 °F 8.7 °F 14.0 °F 84% 30.40 in 4.0 mi SW 6.9 mph - 0.00 in Snow Light Snow
3:53 AM 17.1 °F 10.0 °F 14.0 °F 88% 30.42 in 7.0 mi WSW 4.6 mph - 0.00 in   Overcast
4:53 AM 16.0 °F 4.4 °F 10.0 °F 77% 30.45 in 7.0 mi West 9.2 mph - 0.00 in Snow Light Snow
5:53 AM 15.1 °F 4.2 °F 8.1 °F 74% 30.46 in 10.0 mi WSW 8.1 mph - 0.00 in   Overcast
6:53 AM 14.0 °F 5.1 °F 8.1 °F 77% 30.48 in 10.0 mi WSW 5.8 mph - N/A   Overcast
7:53 AM 12.9 °F 2.6 °F 6.1 °F 74% 30.49 in 10.0 mi SW 6.9 mph - N/A   Overcast
8:53 AM 12.9 °F 1.6 °F 8.1 °F 81% 30.53 in 10.0 mi SW 8.1 mph - N/A   Mostly Cloudy
9:53 AM 12.9 °F 2.6 °F 7.0 °F 77% 30.53 in 10.0 mi SW 6.9 mph - N/A   Clear
10:53 AM 17.1 °F 8.7 °F 8.1 °F 68% 30.52 in 10.0 mi SSW 5.8 mph - N/A   Clear
11:53 AM 19.9 °F 9.3 °F 7.0 °F 57% 30.51 in 10.0 mi West 9.2 mph - N/A   Clear
12:53 PM 19.9 °F 10.1 °F 7.0 °F 57% 30.50 in 10.0 mi West 8.1 mph - N/A   Clear
1:53 PM 21.0 °F 12.4 °F 8.1 °F 57% 30.48 in 10.0 mi SSW 6.9 mph - N/A   Clear
2:53 PM 21.0 °F 12.4 °F 9.0 °F 60% 30.44 in 10.0 mi WSW 6.9 mph - N/A   Clear
3:53 PM 21.0 °F 11.4 °F 9.0 °F 60% 30.46 in 10.0 mi West 8.1 mph - N/A   Clear
4:53 PM 21.0 °F 14.6 °F 7.0 °F 55% 30.44 in 10.0 mi WSW 4.6 mph - N/A   Clear
5:53 PM 15.1 °F - 6.1 °F 68% 30.45 in 10.0 mi Calm Calm - N/A   Clear
6:53 PM 12.0 °F - 6.1 °F 77% 30.45 in 10.0 mi Calm Calm - N/A   Clear
7:53 PM 12.9 °F - 7.0 °F 77% 30.44 in 10.0 mi Calm Calm - N/A   Clear
8:53 PM 14.0 °F - 9.0 °F 80% 30.45 in 10.0 mi Calm Calm - N/A   Clear
9:53 PM 14.0 °F - 9.0 °F 80% 30.46 in 10.0 mi Calm Calm - N/A   Mostly Cloudy
10:53 PM 16.0 °F - 8.1 °F 71% 30.40 in 10.0 mi Calm Calm - N/A   Clear
11:53 PM 16.0 °F - 9.0 °F 74% 30.38 in 10.0 mi Calm Calm - N/A   Mostly Cloudy